This demonstration page uses our WeatherBlox Daily Observations layout. Learn more.

Left ArrowRight Arrow

Hourly Observations for June 26, 2020

Temp ( °F °C ) Dew Point ( °F °C ) Humidity (%) Winds ( mph kmh ) Pressure ( in mb ) Visibility ( mi km ) Precip ( " mm )
12:53 am 00:53 Partly Cloudy 74 23.3 70 21.1 88 88 SW 13 20 30.15 1021 10 16 0.00 0.00
1:53 am 01:53 Cloudy 71 21.7 64 17.8 79 79 SSW 7 11 30.14 1021 10 16 0.00 0.00
2:53 am 02:53 Clear 70 21.1 65 18.3 84 84 SW 5 7 30.14 1021 10 16 0.00 0.00
3:53 am 03:53 Clear 69 20.6 65 18.3 87 87 Calm 30.13 1020 10 16 0.00 0.00
4:53 am 04:53 Clear 69 20.6 65 18.3 87 87 SSW 7 11 30.14 1021 10 16 0.00 0.00
5:53 am 05:53 Clear 68 20 65 18.3 90 90 Calm 30.16 1021 10 16 0.00 0.00
6:53 am 06:53 Mostly Cloudy 68 20 65 18.3 90 90 SW 5 7 30.17 1022 10 16 0.00 0.00
7:53 am 07:53 Sunny 70 21.1 65 18.3 84 84 Calm 30.19 1022 10 16 0.00 0.00
8:53 am 08:53 Sunny 72 22.2 64 17.8 76 76 Calm 30.21 1023 10 16 0.00 0.00
9:53 am 09:53 Mostly Sunny 77 25 63 17.2 62 62 W 6 9 30.21 1023 10 16 0.00 0.00
10:53 am 10:53 Sunny 79 26.1 64 17.8 60 60 WNW 5 7 30.19 1022 10 16 0.00 0.00
11:53 am 11:53 Sunny 81 27.2 65 18.3 58 58 VRB 5 7 30.18 1022 10 16 0.00 0.00
12:53 pm 12:53 Sunny 83 28.3 66 18.9 57 57 VRB 7 11 30.18 1022 10 16 0.00 0.00
1:53 pm 13:53 Partly Cloudy 83 28.3 66 18.9 57 57 W 10 17 30.18 1022 10 16 0.00 0.00
2:53 pm 14:53 Mostly Cloudy 80 26.7 66 18.9 62 62 NW 9 15 30.19 1022 10 16 0.00 0.00
3:53 pm 15:53 Mostly Sunny 80 26.7 66 18.9 62 62 NW 10 17 30.19 1022 10 16 0.00 0.00
4:53 pm 16:53 Mostly Cloudy 80 26.7 67 19.4 64 64 NNW 5 7 30.17 1022 10 16 0.00 0.00
5:53 pm 17:53 Mostly Cloudy 80 26.7 67 19.4 64 64 W 6 9 30.16 1021 10 16 0.00 0.00
6:53 pm 18:53 Sunny 79 26.1 63 17.2 58 58 W 12 19 30.16 1022 10 16 0.00 0.00
7:53 pm 19:53 Partly Cloudy 76 24.4 65 18.3 69 69 NW 10 17 30.16 1022 10 16 0.00 0.00
8:53 pm 20:53 Clear 75 23.9 61 16.1 62 62 W 9 15 30.16 1021 10 16 0.00 0.00
9:53 pm 21:53 Clear 74 23.3 59 15 60 60 SW 5 7 30.14 1021 10 16 0.00 0.00
10:53 pm 22:53 Clear 73 22.8 59 15 62 62 SW 6 9 30.15 1021 10 16 0.00 0.00
11:53 pm 23:53 Clear 72 22.2 61 16.1 68 68 SW 7 11 30.15 1021 10 16 0.00 0.00

Powered by AerisWeather